Location: Isola Pescaroli
(45.0500°N, 10.1667°E)
Time: 01:41:39
(UTC+00:00)

SL-4 R/B - Pass Details

Date: 19 June 2021
Orbit: 428 x 662 km, 51.6° (Epoch: 29 July)

Event Time Altitude Azimuth Distance (km) Brightness Sun altitude
Rises 23:40:18 0° 269° (W) 2,671 5.5 -21.4°
Reaches altitude 10° 23:42:44 10° 278° (W) 1,738 4.6 -21.3°
Maximum altitude 23:46:21 35° 346° (NNW) 803 3.4 -21.3°
Drops below altitude 10° 23:49:45 10° 54° (NE) 1,625 5.0 -21.2°
Sets 23:51:58 0° 64° (ENE) 2,469 5.8 -21.1°
